Regional Weather Roundup
Issued by NWS

Home | Current Version | Previous Version | Graphics & Text | Print | Product List | Glossary On
Versions: 1 2 3 4 5 6 7 8 9 10 11 12 13 14 15 16 17 18 19 20 21 22 23 24 25 26 27 28 29 30 31 32 33 34 35 36 37 38 39 40 41 42 43 44 45 46 47 48 49 50
000
ASUS43 KIND 240759
RWRIN

WEATHER ROUNDUP FOR INDIANA
NATIONAL WEATHER SERVICE INDIANAPOLIS IN
400 AM EDT WED MAY 24 2017

NOTE: "FAIR" INDICATES FEW OR NO CLOUDS BELOW 12,000 FEET WITH NO
SIGNIFICANT WEATHER AND/OR OBSTRUCTIONS TO VISIBILITY.

* - STATION DOES NOT REPORT WEATHER SUCH AS PRECIPITATION OR FOG.

+ - STATION NOT QUALITY CONTROLLED BY THE NATIONAL WEATHER SERVICE.
    USE DATA WITH CAUTION...ESPECIALLY DEWPOINT AND RELATIVE
    HUMIDITY OBSERVATIONS.

INZ001>003-010>013-019-020-240900-
NORTHWEST INDIANA

CITY           SKY/WX    TMP DP  RH WIND       PRES   REMARKS
MICHIGAN CITY+ CLOUDY    54  54 100 N3        29.60F FOG
MONTICELLO +   CLOUDY    56  55  95 NW7       29.56F FOG
RENSSELAER +   CLOUDY    57  54  88 NW5       29.59F

$$

LMZ046-743>745-240900-
SOUTHERN LAKE MICHIGAN

STATION/POSITION TIME  TEMP    WIND        PRES    WAVE
                       AIR SEA DIR/SP/G            HT
                 (UTC) (F)     (DEG/KT/KT) (MB)    (FT)
BURNS HARBOR     0740   53      40/  1/  3 1003.4F
MICHIGAN CITY    0730   54      20/ 10/ 11   N/A
5NW MICH CITY    0750   53 53   30/ 10/ 12   N/A     1

$$

INZ004-005-014>016-021>024-240900-
NORTH CENTRAL INDIANA

CITY           SKY/WX    TMP DP  RH WIND       PRES   REMARKS
GOSHEN         CLOUDY    58  52  80 E5        29.59F
PERU/GRISSOM   CLOUDY    60  53  78 E6        29.54F
SOUTH BEND     CLOUDY    56  54  93 NE5       29.60F

$$

INZ006>009-017-018-025>027-240900-
NORTHEAST INDIANA

CITY           SKY/WX    TMP DP  RH WIND       PRES   REMARKS
ANGOLA *+      PTCLDY    57  54  88 E7        29.60F
FORT WAYNE     CLOUDY    59  51  75 E10       29.57F
KENDALLVILLE + CLOUDY    58  52  81 E7        29.60F

$$

INZ028-029-035-036-043>045-051>053-240900-
WEST CENTRAL INDIANA

CITY           SKY/WX    TMP DP  RH WIND       PRES   REMARKS
CRAWFORDSVL +  CLOUDY    55  55 100 NW6       29.57F
GREENCASTLE +  PTCLDY    55  54  94 NW3       29.57F
LAFAYETTE      CLOUDY    56  55  97 NW7       29.56F
TERRE HAUTE    CLOUDY    60  53  77 N5        29.57F

$$

INZ030>032-037>040-046>048-054>057-064-065-240900-
CENTRAL INDIANA

CITY           SKY/WX    TMP DP  RH WIND       PRES   REMARKS
CP ATTERBURY + CLOUDY    55  55 100 CALM      29.56F
INDIANAPOLIS   CLOUDY    60  52  74 W7        29.55F
-EAGLE CREEK   PTCLDY    61  53  75 W3        29.55F
KOKOMO +       CLOUDY    60  54  80 E10       29.55F
SHELBYVILLE    CLOUDY    63  53  70 SE3       29.55F

$$

INZ033-034-041-042-049-050-058-059-240900-
EAST CENTRAL INDIANA

CITY           SKY/WX    TMP DP  RH WIND       PRES   REMARKS
MUNCIE         CLOUDY    61  54  77 SE3       29.56F
RICHMOND +     CLOUDY    59  55  88 S5        29.59F

$$

INZ060-061-067>069-081>083-085>088-240900-
SOUTHWEST INDIANA

CITY           SKY/WX    TMP DP  RH WIND       PRES   REMARKS
EVANSVILLE     CLOUDY    63  55  75 CALM      29.57F
HUNTINGBURG *+ CLOUDY    62  56  80 CALM      29.56F

$$

INZ062-063-066-070>080-084-089>092-240900-
SOUTH CENTRAL AND SOUTHEAST INDIANA

CITY           SKY/WX    TMP DP  RH WIND       PRES   REMARKS
BLOOMINGTON    CLOUDY    60  53  77 W3        29.56F
MADISON *+     CLOUDY    59  55  88 CALM      29.59F
SEYMOUR +      CLOUDY    61  57  88 CALM      29.56

$$





USA.gov is the U.S. government's official web portal to all federal, state and local government web resources and services.